Location: Newark
(7.0858°N, 171.3717°E)
Time: 10:33:52
(UTC+00:00)

A-11 Canister half - Pass Details

Date: 04 December 2020
Orbit: 1517 x 1683 km, 47.2° (Epoch: 19 January)

Event Time Altitude Azimuth Distance (km) Brightness Sun altitude
Rises 09:20:30 0° 285° (WNW) 4,909 12.2 -43.1°
Reaches altitude 10° 09:25:22 10° 266° (W) 3,900 11.6 -44.2°
Maximum altitude 09:30:57 16° 231° (SW) 3,382 11.2 -45.5°
Drops below altitude 10° 09:36:29 10° 196° (SSW) 3,832 11.4 -46.7°
Sets 09:41:16 0° 175° (S) 4,783 11.8 -47.8°
